Regional Weather Roundup
Issued by NWS

Home | Current Version | Previous Version | Text Only | Print | Product List | Glossary On
Versions: 1 2 3 4 5 6 7 8 9 10 11 12 13 14 15 16 17 18 19 20 21 22 23 24 25 26 27 28 29
000
ASPQ40 PGUM 251112
RWRPQ
WEATHER ROUNDUP FOR THE MARIANAS AND MICRONESIA
NATIONAL WEATHER SERVICE TIYAN GU
900 PM CHST SAT OCT 25 2014

GUZ001>004-251200-
MARIANA ISLANDS-

CITY           SKY/WX    TMP DP  RH WIND       PRES   REMARKS
GUAM AIRPORT   PTCLDY    81  77  89 NE7       29.95R
ANDERSEN AFB   PTCLDY    81  77  89 E12       29.95R
ROTA AIRPORT   NOT AVBL
TINIAN AP      NOT AVBL
SAIPAN AP      CLEAR     81  73  78 E10       29.94R

$$

PMZ161-251200-
REPUBLIC OF PALAU-

CITY           SKY/WX    TMP DP  RH WIND       PRES   REMARKS
KOROR AP       PTCLDY    79  77  94 CALM      29.90R
KOROR WSO      PTCLDY    82  77  83 CALM      29.89R HX  91

$$

PMZ171>174-251200-
FEDERATED STATES OF MICRONESIA-

CITY           SKY/WX    TMP DP  RH WIND       PRES   REMARKS
YAP AIRPORT    MOCLDY    79  77  94 VRB3      29.87R
CHUUK AP       LGT RAIN  79  79 100 VRB6      29.88R
POHNPEI AP     NOT AVBL
POHNPEI WSO    CLOUDY    79  77  94 S3        29.89S
KOSRAE AP      NOT AVBL

$$

PMZ181-251200-
REPUBLIC OF THE MARSHALL ISLANDS-

CITY           SKY/WX    TMP DP  RH WIND       PRES   REMARKS
KWAJALEIN AP   CLEAR     82  73  74 NE9       29.90S
MAJURO AP      NOT AVBL
MAJURO WSO     MOCLDY    82  75  78 E5        29.86F

$$




USA.gov is the U.S. government's official web portal to all federal, state and local government web resources and services.